Location: Unspecified
(56.5167°N, 0.0000°E)
Time: 15:20:50
(UTC+01:00)

Cosmos 1674 - Visible Passes

Search period start: 29 January 2015 00:00
Search period end: 08 February 2015 00:00
Orbit: 512 x 535 km, 82.5° (Epoch: 27 January)

Date Brightness Start Highest point End Pass type
(mag) Time Alt. Az. Time Alt. Az. Time Alt. Az.
29 Jan 5.8 19:34:09 10° WNW 19:35:42 12° NW 19:37:08 10° NNW visible
30 Jan 5.7 19:21:06 10° W 19:22:58 13° NW 19:24:44 10° NNW visible
31 Jan 5.6 19:08:05 10° W 19:10:14 14° NW 19:12:16 10° NNW visible
01 Feb 5.6 18:55:07 10° W 18:57:29 15° WNW 18:59:46 10° NNW visible
02 Feb 5.5 18:42:10 10° W 18:44:44 16° WNW 18:47:13 10° NNW visible
03 Feb 5.4 18:29:14 10° WSW 18:31:59 17° WNW 18:34:39 10° NNW visible
04 Feb 5.3 18:16:19 10° WSW 18:19:13 19° WNW 18:22:04 10° NNW visible
